sat.trackr.live / text

‹ back to catalog

HIBARI

NORAD 49400 · 2021-102F

PAYLOAD ACTIVE UNKNOWN

§ Identity

Operator
Country
JPN
Launch date
2021-11-09
Launch site
KSCUT
Launch vehicle
Mass (kg)
RCS (m²)

External: N2YO · Heavens-Above · Gunter

§ Orbital elements

Epoch: 2026-09-20T20:26:07.071936Z

Period
93.91 min
Inclination
97.3150°
Eccentricity
0.0010219
Mean motion
15.33449978 rev/d
Perigee alt
458.5 km
Apogee alt
472.5 km
Semi-major
6,843.7 km
B*
2.1351e-4
RAAN
308.7334°
Arg perigee
210.4854°
Mean anomaly
149.5796°
Rev number
26,884

§ Raw data

HIBARI1 49400U 21102F   26263.85147074  .00006835  00000+0  21351-3 0  99942 49400  97.3150 308.7334 0010219 210.4854 149.5796 15.33449978268841

JSON: /api/v1/satellites/49400 · /tle

For live sub-satellite position, see the globe view (requires WebGL).

§ Visibility from observer

Set your observer location to see the next 7 days of passes ≥ 10°. The values pass through the URL so the page stays shareable.

No JS? Fill the form by hand. The geolocation button needs JavaScript.

§ Radio — SatNOGS DB

ModeDescriptionDownlinkUplink
GMSK Mode S 2.285 GHz

1 transmitter · refreshed weekly from db.satnogs.org